Flag for Germany Weather past 2 weeks in Amberg, Bavaria, Germany

Now
43 °F

Fog.


Feels Like: 43 °F
Forecast: 36 / 53 °F
Wind: No wind

Location: Hohenfels

Current Time: Oct 25, 2014 at 9:57:11 PM

Latest Report: Oct 25, 2014 at 8:58 PM


Visibility: 3 mi

Pressure: 30.28 "Hg

Humidity: 100%

Dew point: 43 °F

Location of AmbergLocation

Historic Weather in Amberg — Graph

°F

Amberg temperature yesterday

Maximum temperature yesterday: 54 °F (at 2:01 PM)
Minimum temperature yesterday: 36 °F (at 11:58 PM)
Average temperature yesterday: 45 °F

Past Weeks' High & Low Weather Summary

 TemperatureHumidityPressure
High66 °F (Oct 12, 3:58 PM)100% (Oct 10, 9:58 PM)30.30 "Hg (Oct 10, 9:58 PM)
Low36 °F (Oct 24, 11:58 PM)63% (Oct 24, 2:58 PM)29.61 "Hg (Oct 21, 9:04 PM)
Average52 °F92%30.00 "Hg
* Reported Oct 10 7:58 PM — Oct 25 7:58 PM, Amberg, Weather by CustomWeather, © 2014

Note: Actual official high and low records may vary slightly from our data, if they occured in-between our weather recording intervals... More about our weather records

Advertising

Amberg weather history for previous 24 hours

 ConditionsComfort  
Time TempWeatherWind HumidityBarometerVisibility
7:58 PM
Oct 25
43 °FDrizzle. Low clouds.1 mph100%30.28 "HgN/A
6:58 PM43 °FLow clouds.1 mph100%30.27 "HgN/A
6:04 PM43 °FBroken clouds.2 mph100%30.21 "HgN/A
5:58 PM43 °FMostly cloudy.3 mph100%30.25 "HgN/A
4:58 PM43 °FLight rain. Fog.2 mph100%30.24 "Hg4 mi
3:58 PM43 °FLight rain. Fog.2 mph100%30.25 "Hg4 mi
2:58 PM43 °FFog.6 mph100%30.24 "Hg6 mi
2:00 PM43 °FLow clouds.5 mph100%30.19 "HgN/A
1:58 PM43 °FLow clouds.6 mph100%30.24 "HgN/A
12:58 PM43 °FFog.6 mph100%30.24 "Hg6 mi
11:58 AM43 °FFog.5 mph100%30.24 "Hg4 mi
10:58 AM41 °FFog.6 mph100%30.23 "Hg3 mi
10:04 AM41 °FFog.5 mph100%30.18 "Hg1 mi
9:58 AM41 °FFog.6 mph100%30.23 "Hg1 mi
8:58 AM41 °FFog.6 mph100%30.21 "Hg1 mi
7:58 AM43 °FFog.6 mph93%30.19 "Hg1 mi
6:59 AM43 °FFog.3 mph100%30.15 "Hg1 mi
6:58 AM43 °FFog.3 mph100%30.19 "Hg1 mi
5:58 AM41 °FFog.1 mph100%30.19 "Hg1 mi
4:58 AM41 °FFog.No wind100%30.17 "Hg0 mi
3:58 AM39 °FChilly.2 mph100%30.18 "HgN/A
2:58 AM37 °FChilly.No wind100%30.19 "HgN/A
1:58 AM36 °FFog.2 mph100%30.21 "Hg1 mi
12:59 AM36 °FFog.1 mph93%30.17 "Hg1 mi
12:58 AM36 °FFog.1 mph93%30.21 "Hg1 mi
11:58 PM
Oct 24
36 °FPassing clouds.No wind93%30.21 "HgN/A
10:58 PM37 °FPassing clouds.No wind93%30.22 "HgN/A
9:58 PM37 °FClear.1 mph93%30.22 "HgN/A
Weather by CustomWeather, © 2014

See weather overviewHow to use our weather pages